Starlink 2705

operational
NORAD ID: 48672 Int'l Des: 2021-044 Owner: SPXS Country: US Constellation: starlink
LEOCIRCULARSTARLINK_TYPE

About Starlink 2705

Description loading...

Live Position

Loading 3D Globe...

Upcoming Passes

Altitude History

Altitude vs Time

uPlot chart will show altitude changes over time

Two-Line Element Set

1 48672U 21044AL 25257.93495619 .00000522 00000-0 53953-4 0 9993
2 48672 53.0507 180.6111 0001627 96.4515 263.6659 15.06388533237352
Epoch: Sep 14, 2025 • Age: 25 hours

Current Status

Altitude 566.5 km
Velocity 7.58 km/s
Sub-Earth Point -52.19°S, 112.78°E
Launch Date May 26, 2021
Age 4.3 years
Type internet

Technical Details

Classification Payload
Mass 260.00 kg
Dry Mass 248.00 kg
Total Mass 260.00 kg
Length 0.20 m
Diameter 2.80 m
Span 9.00 m
Shape Box + pan
Manufacturer SPXS
Bus Type Starlink
Phase Status In Orbit
Owner/State SPXS/US

Large Constellations

Loading constellations...